Location: Albany
(35.0170°S, 117.8920°E)
Time: 17:25:44
(UTC+08:00)

Explorer 11/Cluster Stage 4 - Pass Details

Date: 29 January 2021
Orbit: 467 x 1257 km, 28.8° (Epoch: 02 March)

Event Time Altitude Azimuth Distance (km) Brightness Sun altitude
Rises 05:58:39 0° 308° (NW) 4,130 9.7 5.7°
Reaches altitude 10° 06:02:00 10° 317° (NW) 3,098 9.1 6.4°
Maximum altitude 06:08:40 32° 16° (NNE) 1,730 8.4 7.7°
Drops below altitude 10° 06:14:26 10° 77° (ENE) 2,658 10.6 8.8°
Sets 06:17:05 0° 87° (E) 3,473 11.5 9.3°
